Munising, MI

10:47 PM EDT on August 21, 2017 (GMT -0400)
Munising

Weather History for KP53 - January, 2013

Change the Weather History Date:

Sunday, January 6, 2013

  Actual Average (KISQ) Record (KISQ)
Temperature  
Mean Temperature 28 °F -  
Max Temperature 33 °F 23 °F 42 °F (2012)
Min Temperature 19 °F 7 °F -14 °F (2014)
Degree Days  
Heating Degree Days 37    
Moisture  
Dew Point 19 °F    
Average Humidity 74    
Maximum Humidity 85    
Minimum Humidity 65    
Precipitation  
Precipitation 0.03 in - - ()
Sea Level Pressure  
Sea Level Pressure 30.02 in    
Wind  
Wind Speed 9 mph (WNW)    
Max Wind Speed 26 mph    
Max Gust Speed 30 mph    
Averages and records for this station are not official NWS values.
T = Trace of Precipitation, MM = Missing Value Source: NWS Daily Summary

Daily Weather History Graph

Daily Weather History Graph

Search for Another Location

Airport or City:

Trip Planner

Search our weather history database for the weather conditions in past years. The results will help you decide how hot, cold, wet, or windy it might be!

Date:

Astronomy

Jan. 06, 2013 Rise Set
Actual Time 8:29 AM EST 5:15 PM EST
Civil Twilight 7:55 AM EST 5:50 PM EST
Nautical Twilight 7:17 AM EST 6:28 PM EST
Astronomical Twilight 6:40 AM EST 7:04 PM EST
Moon 2:35 AM EST (1/6) 12:49 PM EST (1/6)
Length of Visible Light 9h 55m
Length of Day
8h 46m
Waning Crescent, 33% of the Moon is Illuminated
Jan 6
Waning Crescent
Jan 11
New
Jan 18
First Quarter
Jan 26
Full
Feb 3
Last Quarter

Hourly Weather History & Observations

Time (EST) Temp. Windchill Dew Point Humidity Pressure Visibility Wind Dir Wind Speed Gust Speed Precip Events Conditions
12:56 AM 24.1 °F 19.7 °F 19.0 °F 81% 29.80 in - SSW 3.5 mph - N/A   Unknown
1:56 AM 25.0 °F 19.3 °F 19.0 °F 78% 29.79 in - South 4.6 mph - N/A   Unknown
2:56 AM 25.0 °F 20.7 °F 19.0 °F 78% 29.80 in - South 3.5 mph - N/A   Unknown
3:56 AM 25.0 °F 18.1 °F 19.0 °F 78% 29.80 in - South 5.8 mph - N/A   Unknown
4:56 AM 25.0 °F 19.3 °F 19.0 °F 78% 29.81 in - South 4.6 mph - N/A   Unknown
5:56 AM 25.0 °F - 19.9 °F 81% 29.82 in - Calm Calm - 0.01 in   Unknown
6:56 AM 33.1 °F 19.8 °F 28.9 °F 85% 29.85 in - North 26.5 mph - N/A   Unknown
7:56 AM 30.9 °F 18.4 °F 27.0 °F 85% 29.89 in - North 20.7 mph 29.9 mph 0.01 in   Unknown
8:56 AM 30.0 °F 17.2 °F 25.0 °F 82% 29.95 in - North 20.7 mph 27.6 mph N/A   Unknown
9:56 AM 30.0 °F 18.3 °F 23.0 °F 75% 29.99 in - NNW 17.3 mph 24.2 mph N/A   Unknown
10:56 AM 30.0 °F 19.5 °F 23.0 °F 75% 30.03 in - North 13.8 mph - 0.01 in   Unknown
11:56 AM 28.0 °F 14.9 °F 21.0 °F 75% 30.05 in - NNW 19.6 mph 25.3 mph N/A   Unknown
12:56 PM 27.0 °F 15.6 °F 19.0 °F 72% 30.06 in - NW 13.8 mph 26.5 mph N/A   Unknown
1:56 PM 26.1 °F 13.6 °F 18.0 °F 71% 30.08 in - NW 16.1 mph 26.5 mph N/A   Unknown
2:56 PM 26.1 °F 16.2 °F 18.0 °F 71% 30.10 in - NW 10.4 mph - N/A   Unknown
3:56 PM 26.1 °F 16.8 °F 18.0 °F 71% 30.14 in - NW 9.2 mph - N/A   Unknown
4:56 PM 26.1 °F 18.4 °F 18.0 °F 71% 30.16 in - WNW 6.9 mph - N/A   Unknown
5:56 PM 26.1 °F 14.5 °F 18.0 °F 71% 30.18 in - NW 13.8 mph - N/A   Unknown
6:56 PM 25.0 °F 15.5 °F 15.1 °F 66% 30.19 in - NW 9.2 mph - N/A   Unknown
7:56 PM 25.0 °F 18.1 °F 16.0 °F 69% 30.20 in - WNW 5.8 mph - N/A   Unknown
8:56 PM 24.1 °F - 14.0 °F 65% 30.20 in - Calm Calm - N/A   Unknown
9:56 PM 23.0 °F 15.8 °F 14.0 °F 68% 30.20 in - SW 5.8 mph - N/A   Unknown
10:56 PM 23.0 °F 17.0 °F 14.0 °F 68% 30.21 in - SSW 4.6 mph - N/A   Unknown
11:56 PM 19.9 °F 14.9 °F 12.9 °F 74% 30.21 in - SSW 3.5 mph - N/A   Unknown